User: anonymous   Login
Location: ????????
(54.6123°N, 39.2099°E)
Time: 11:05:08
(UTC+00:00)
Language:

ARIANE 5 R/B - Orbit

View from above orbital plane
View from above orbital plane
View from above satellite
View from above satellite

Ground track
Ground track

The orbit data is extracted from the following two-line orbital elements,

1 36125U 09073B   25191.96329626 0.00000350  00000-0  46790-4 0    08
2 36125  98.0273 282.9300 0022474 199.2733 160.7266 14.79406981    02
Epoch (UTC): 10 July 2025 23:07:08
Eccentricity: 0.0022474
inclination: 98.0273°
perigee height: 615 km
apogee height: 647 km
right ascension of ascending node: 282.9300°
argument of perigee: 199.2733°
revolutions per day: 14.79406981
mean anomaly at epoch: 160.7266°
orbit number at epoch: 0

The dashed part of the orbit path shows where the satellite is in the earth's shadow,  

DLR